This demonstration page uses our WeatherBlox Daily Observations layout. Learn more.

Left ArrowRight Arrow

41.12389, -100.76542

Hourly Observations for January 26, 2018

Temp ( °F °C ) Dew Point ( °F °C ) Humidity (%) Winds ( mph kmh ) Pressure ( in mb ) Visibility ( mi km ) Precip ( " mm )
12:53 am 00:53 Clear 41 5 26 -3.3 55 55 S 9 15 29.69 1006 10 16 0.00 0.00
1:53 am 01:53 Clear 39 3.9 25 -3.9 57 57 S 5 7 29.70 1006 10 16 0.00 0.00
2:53 am 02:53 Clear 29 -1.7 23 -5 78 78 E 3 6 29.72 1006 10 16 0.00 0.00
3:53 am 03:53 Clear 22 -5.6 18 -7.8 85 85 Calm 29.74 1007 10 16 0.00 0.00
4:53 am 04:53 Clear 20 -6.7 17 -8.3 89 89 NW 7 11 29.75 1007 10 16 0.00 0.00
5:53 am 05:53 Clear 20 -6.7 17 -8.3 89 89 WNW 10 17 29.78 1008 10 16 0.00 0.00
6:53 am 06:53 Clear 17 -8.3 14 -10 88 88 WNW 6 9 29.80 1009 10 16 0.00 0.00
7:53 am 07:53 Clear 20 -6.7 16 -8.9 85 85 NW 10 17 29.82 1010 10 16 0.00 0.00
8:53 am 08:53 Sunny 20 -6.7 16 -8.9 85 85 NW 8 13 29.85 1011 10 16 0.00 0.00
9:53 am 09:53 Sunny 21 -6.1 16 -8.9 81 81 WNW 3 6 29.86 1011 10 16 0.00 0.00
10:53 am 10:53 Sunny 36 2.2 25 -3.9 64 64 WNW 13 20 29.88 1012 10 16 0.00 0.00
11:53 am 11:53 Mostly Cloudy 40 4.4 28 -2.2 63 63 NNW 18 30 29.90 1012 10 16 0.00 0.00
12:53 pm 12:53 Mostly Cloudy 39 3.9 26 -3.3 60 60 WNW 13 20 29.95 1014 10 16 0.00 0.00
1:53 pm 13:53 Sunny 41 5 27 -2.8 57 57 NW 12 19 29.96 1015 10 16 0.00 0.00
2:53 pm 14:53 Cloudy 41 5 28 -2.2 60 60 NW 10 17 30.00 1016 10 16 0.00 0.00
3:53 pm 15:53 Cloudy 40 4.4 30 -1.1 68 68 NW 10 17 30.05 1018 10 16 0.00 0.00
4:53 pm 16:53 Partly Cloudy 40 4.4 28 -2.2 63 63 WNW 10 17 30.08 1019 10 16 0.00 0.00
5:53 pm 17:53 Clear 35 1.7 27 -2.8 72 72 WNW 6 9 30.13 1020 10 16 0.00 0.00
6:53 pm 18:53 Clear 33 0.6 25 -3.9 72 72 Calm 30.18 1022 10 16 0.00 0.00
7:53 pm 19:53 Clear 30 -1.1 23 -5 75 75 NNW 3 6 30.21 1023 10 16 0.00 0.00
8:53 pm 20:53 Clear 24 -4.4 20 -6.7 84 84 NW 5 7 30.25 1024 10 16 0.00 0.00
9:53 pm 21:53 Clear 21 -6.1 17 -8.3 85 85 NNW 5 7 30.26 1025 10 16 0.00 0.00
10:53 pm 22:53 Clear 21 -6.1 17 -8.3 85 85 NW 6 9 30.24 1024 10 16 0.00 0.00
11:53 pm 23:53 Clear 19 -7.2 15 -9.4 84 84 WNW 6 9 30.25 1024 10 16 0.00 0.00

Powered by AerisWeather